Regional Weather Roundup
Issued by NWS Charleston, WV

Home | Current Version | Previous Version | Text Only | Print | Product List | Glossary Off
Versions: 1 2 3 4 5 6 7 8 9 10 11 12 13 14 15 16 17 18 19 20 21 22 23 24 25 26 27 28 29 30 31 32 33 34 35 36 37 38 39 40 41 42 43 44 45 46 47 48 49 50

000
ASUS41 KRLX 311110
RWRRLX
West Virginia Regional Weather Roundup
National Weather Service Charleston WV
600 AM EST SAT JAN 31 2015

Note: "fair" indicates few or no clouds below 12,000 feet with no
significant weather and/or obstructions to visibility.

WVZ003-311200-
Northern Panhandle of West Virginia

CITY           SKY/WX    TMP DP  RH WIND       PRES   REMARKS
WHEELING       PTCLDY     6   2  83 SW5       30.35R WCI  -3
$$

WVZ009-311200-
Northwest West Virginia

CITY           SKY/WX    TMP DP  RH WIND       PRES   REMARKS
PARKERSBURG    CLEAR      9   4  80 CALM      30.41F
$$

WVZ006-311200-
Western West Virginia

CITY           SKY/WX    TMP DP  RH WIND       PRES   REMARKS
HUNTINGTON     CLEAR     15  12  88 CALM      30.39F
$$

WVZ015-311200-
West Central West Virginia

CITY           SKY/WX    TMP DP  RH WIND       PRES   REMARKS
CHARLESTON     CLEAR     15  11  83 CALM      30.38F
$$

WVZ022-031-311200-
North Central West Virginia

CITY           SKY/WX    TMP DP  RH WIND       PRES   REMARKS
CLARKSBURG     CLEAR      8   4  83 CALM      30.36R
MORGANTOWN     CLEAR      9   2  73 CALM      30.35S
$$

WVZ025-035-042-045-311200-
Southern West Virginia

CITY           SKY/WX    TMP DP  RH WIND       PRES   REMARKS
BECKLEY        CLEAR     10   6  84 W5        30.26F WCI   2
LOGAN            N/A     16  14  93 CALM      30.33S
BLUEFIELD      CLEAR     13   8  81 W8        30.24F WCI   2
LEWISBURG      CLEAR     15   8  73 S3        30.25S
$$

WVZ047-311200-
Northern Mountains of West Virginia

CITY           SKY/WX    TMP DP  RH WIND       PRES   REMARKS
ELKINS         PTCLDY     0  -3  87 CALM      30.30S
$$

WVZ052-311200-
Eastern Panhandle of West Virginia

CITY           SKY/WX    TMP DP  RH WIND       PRES   REMARKS
MARTINSBURG    CLEAR     17   0  47 NW13      30.29F WCI   4
PETERSBURG     CLEAR     12   3  67 E3        30.31R
$$


USA.gov is the U.S. government's official web portal to all federal, state and local government web resources and services.